Tracking 20092 objects as of 14-Dec-2019
HD Live streaming from Space Station
objects crossing your sky now

FENGYUN 1C DEB

Track FENGYUN 1C DEB now!
10-day predictions


NORAD ID: 31345
Int'l Code: 1999-025BQZ
Perigee: 836.3 km
Apogee: 965.8 km
Inclination: 98.1 °
Period: 102.9 minutes
Semi major axis: 7272 km
RCS: 0.0093 m2 (small)
Launch date: May 10, 1999
Source: People's Republic of China (PRC)
Launch site: Taiyaun Space Center, China (TSC)

Note: This is SATELLITE DEBRIS
aabbcc
Your satellite tracking list
Your tracking list is empty




NASA's NSSDC Master Catalog

Two Line Element Set (TLE):
1 31345U 99025BQZ 19347.84086246 -.00000008  00000-0  19088-4 0  9992
2 31345  98.1128 201.6085 0089035 209.4364 150.1772 13.99975126647611
Source of the keplerian elements: AFSPC